| time (UTC) | temp C | wind direction | speed KPH | gust KPH | rain 1hr cm | rain 24hr cm | rain mn cm | humidity % | barometer mb |
| 20260504221547 | 16 | 84 | 16.1 | 29.0 | 0.00 | 0.00 | 0.00 | 62 | 1018.7 |
| 20260504220100 | 16 | 79 | 16.1 | 27.4 | 0.00 | 0.00 | 0.00 | 62 | 1018.9 |
| 20260504214556 | 16 | 82 | 11.3 | 25.7 | 0.00 | 0.00 | 0.00 | 62 | 1018.8 |
| 20260504213107 | 16 | 82 | 9.7 | 17.7 | 0.00 | 0.00 | 0.00 | 61 | 1018.8 |
| 20260504211555 | 16 | 82 | 9.7 | 25.7 | 0.00 | 0.00 | 0.00 | 61 | 1018.6 |
| 20260504210045 | 16 | 82 | 14.5 | 30.6 | 0.00 | 0.00 | 0.00 | 61 | 1018.6 |
| 20260504204545 | 16 | 85 | 12.9 | 27.4 | 0.00 | 0.00 | 0.00 | 61 | 1018.4 |
| 20260504203047 | 17 | 86 | 8.0 | 20.9 | 0.00 | 0.00 | 0.00 | 61 | 1018.3 |
| 20260504201547 | 17 | 87 | 6.4 | 19.3 | 0.00 | 0.00 | 0.00 | 61 | 1017.8 |
| 20260504200045 | 17 | 87 | 6.4 | 24.1 | 0.00 | 0.00 | 0.00 | 61 | 1017.8 |
| 20260504194545 | 17 | 87 | 8.0 | 19.3 | 0.00 | 0.00 | 0.00 | 61 | 1017.5 |
| 20260504193058 | 18 | 86 | 8.0 | 16.1 | 0.00 | 0.00 | 0.00 | 61 | 1017.4 |
| 20260504191553 | 18 | 87 | 9.7 | 22.5 | 0.00 | 0.00 | 0.00 | 61 | 1017.3 |
| 20260504190054 | 20 | 87 | 12.9 | 29.0 | 0.00 | 0.00 | 0.00 | 62 | 1017.1 |
| 20260504184545 | 20 | 89 | 14.5 | 27.4 | 0.00 | 0.00 | 0.00 | 62 | 1016.8 |
| 20260504183056 | 21 | 94 | 9.7 | 24.1 | 0.00 | 0.00 | 0.00 | 62 | 1016.6 |
| 20260504181552 | 21 | 103 | 14.5 | 25.7 | 0.00 | 0.00 | 0.00 | 63 | 1016.5 |
| 20260504180131 | 21 | 137 | 12.9 | 20.9 | 0.00 | 0.00 | 0.00 | 63 | 1016.4 |
| 20260504174548 | 22 | 158 | 8.0 | 17.7 | 0.00 | 0.00 | 0.00 | 63 | 1016.3 |
| 20260504173052 | 22 | 167 | 9.7 | 20.9 | 0.00 | 0.00 | 0.00 | 64 | 1016.2 |
| 20260504171549 | 22 | 176 | 4.8 | 11.3 | 0.00 | 0.00 | 0.00 | 64 | 1016.2 |
| 20260504081552 | 16 | 188 | 9.7 | 19.3 | 0.00 | 0.00 | 0.00 | 76 | 1018.8 |
| 20260504044542 | 13 | 197 | 8.0 | 14.5 | 0.00 | 0.00 | 0.00 | 76 | 1017.2 |
| 20260504043054 | 13 | 198 | 8.0 | 14.5 | 0.00 | 0.00 | 0.00 | 76 | 1017.2 |
| 20260504041551 | 13 | 198 | 8.0 | 12.9 | 0.00 | 0.00 | 0.00 | 76 | 1017.1 |
| 20260504040057 | 13 | 198 | 9.7 | 20.9 | 0.00 | 0.00 | 0.00 | 76 | 1017.1 |
| 20260504034552 | 13 | 198 | 8.0 | 16.1 | 0.00 | 0.00 | 0.00 | 76 | 1017.1 |
| 20260504033057 | 13 | 198 | 6.4 | 17.7 | 0.00 | 0.00 | 0.00 | 76 | 1017.0 |
| 20260504031552 | 13 | 199 | 6.4 | 16.1 | 0.00 | 0.00 | 0.00 | 76 | 1017.1 |
| 20260504030051 | 13 | 198 | 4.8 | 16.1 | 0.00 | 0.00 | 0.00 | 76 | 1017.0 |
| 20260504024550 | 14 | 199 | 6.4 | 11.3 | 0.00 | 0.00 | 0.00 | 76 | 1016.9 |
| 20260504023045 | 14 | 198 | 4.8 | 14.5 | 0.00 | 0.00 | 0.00 | 76 | 1016.7 |
| 20260504021552 | 14 | 199 | 3.2 | 11.3 | 0.00 | 0.00 | 0.00 | 76 | 1016.7 |
| 20260504020103 | 14 | 199 | 4.8 | 8.0 | 0.00 | 0.00 | 0.00 | 76 | 1016.9 |
| 20260504014550 | 14 | 198 | 3.2 | 9.7 | 0.00 | 0.00 | 0.00 | 76 | 1016.8 |
| 20260504013053 | 14 | 198 | 3.2 | 8.0 | 0.00 | 0.00 | 0.00 | 76 | 1016.9 |
| 20260504011548 | 13 | 198 | 1.6 | 4.8 | 0.00 | 0.00 | 0.00 | 75 | 1016.8 |
| 20260504010044 | 13 | 0 | 0.0 | 4.8 | 0.00 | 0.00 | 0.00 | 75 | 1017.1 |
| 20260504004551 | 13 | 198 | 1.6 | 4.8 | 0.00 | 0.00 | 0.00 | 75 | 1017.2 |
| 20260504003047 | 13 | 0 | 0.0 | 3.2 | 0.00 | 0.00 | 0.00 | 75 | 1017.3 |
| 20260504001553 | 13 | 198 | 1.6 | 8.0 | 0.00 | 0.00 | 0.00 | 74 | 1017.4 |
| 20260504000049 | 13 | 198 | 3.2 | 6.4 | 0.00 | 0.00 | 0.00 | 74 | 1017.5 |
| 20260503234549 | 14 | 198 | 0.0 | 4.8 | 0.00 | 0.00 | 0.00 | 74 | 1017.5 |
| 20260503233044 | 14 | 199 | 3.2 | 8.0 | 0.00 | 0.00 | 0.00 | 74 | 1017.5 |
| 20260503231546 | 15 | 198 | 3.2 | 6.4 | 0.00 | 0.00 | 0.00 | 74 | 1017.5 |
| 20260503230059 | 15 | 199 | 3.2 | 6.4 | 0.00 | 0.00 | 0.00 | 74 | 1017.6 |
| 20260503224544 | 15 | 3.2 | 4.8 | 0.00 | 0.00 | 0.00 | 74 | 1017.6 | |
| 20260503223041 | 15 | 198 | 1.6 | 6.4 | 0.00 | 0.00 | 0.00 | 74 | 1017.7 |